DW7787 Weather Reports


Display with metric or nautical units.
time (UTC)temp
F
wind
direction
speed
MPH
gust
MPH
rain 1hr
in
rain 24hr
in
rain mn
in
humidity
%
barometer
mb
20260506211259 74 318 0.0 6.0 0.00 0.30 0.30 77 1012.9
20260506210825 74 204 1.0 4.0 0.00 0.30 0.30 77 1012.9
20260506210004 74 215 1.0 4.0 0.00 0.30 0.30 76 1012.9
20260506205502 74 88 1.0 3.0 0.00 0.30 0.30 77 1012.9
20260506205002 74 134 1.0 3.0 0.00 0.30 0.30 78 1013.0
20260506204500 73 216 1.0 3.0 0.00 0.30 0.30 77 1013.1
20260506203954 73 209 1.0 2.0 0.00 0.30 0.30 78 1013.2
20260506203449 73 324 1.0 4.0 0.00 0.30 0.30 78 1013.2
20260506202945 73 350 1.0 4.0 0.00 0.30 0.30 78 1013.2
20260506202446 72 221 1.0 6.0 0.00 0.30 0.30 80 1013.3
20260506201945 72 40 1.0 6.0 0.00 0.30 0.30 80 1013.6
20260506201441 72 219 1.0 3.0 0.00 0.30 0.30 78 1013.6
20260506201428 72 264 1.0 5.0 0.00 0.30 0.30 79 1013.6
20260506201420 72 200 1.0 5.0 0.00 0.30 0.30 80 1013.6
20260506195942 72 46 2.0 4.0 0.00 0.30 0.30 79 1013.8
20260506195734 72 248 1.0 4.0 0.00 0.30 0.30 79 1013.7
20260506194941 72 145 1.0 4.0 0.00 0.30 0.30 81 1013.7
20260506194437 71 212 1.0 4.0 0.00 0.30 0.30 83 1013.7
20260506194245 71 127 1.0 3.0 0.00 0.30 0.30 83 1013.6
20260506193435 70 139 1.0 4.0 0.00 0.30 0.30 85 1013.6
20260506192937 69 195 2.0 5.0 0.00 0.30 0.30 84 1013.6
20260506192433 69 221 2.0 5.0 0.00 0.30 0.30 86 1013.6
20260506191931 68 192 1.0 4.0 0.00 0.30 0.30 86 1013.6
20260506191432 68 192 1.0 3.0 0.00 0.30 0.30 87 1013.8
20260506190934 68 163 1.0 5.0 0.00 0.30 0.30 86 1013.8
20260506190432 68 225 2.0 5.0 0.00 0.30 0.30 88 1013.8
20260506185933 68 129 1.0 6.0 0.01 0.30 0.30 89 1013.7
20260506185433 67 226 1.0 6.0 0.01 0.30 0.30 91 1013.5
20260506184930 67 140 1.0 5.0 0.02 0.30 0.30 93 1013.6
20260506184430 66 124 1.0 5.0 0.02 0.30 0.30 93 1013.5
20260506183930 65 92 1.0 3.0 0.02 0.30 0.30 92 1013.6
20260506183429 65 78 1.0 3.0 0.03 0.30 0.30 92 1013.5
20260506182929 65 205 1.0 3.0 0.03 0.30 0.30 92 1013.6
20260506182739 65 199 1.0 3.0 0.05 0.30 0.30 92 1013.4
20260506181929 65 135 1.0 3.0 0.07 0.30 0.30 92 1013.3
20260506181428 65 128 2.0 3.0 0.11 0.30 0.30 92 1013.5
20260506180930 65 119 1.0 3.0 0.16 0.30 0.30 91 1013.6
20260506180429 64 123 1.0 3.0 0.23 0.30 0.30 91 1014.0
20260506175931 65 128 1.0 3.0 0.27 0.29 0.29 90 1014.7
20260506175429 65 146 1.0 3.0 0.27 0.29 0.29 89 1015.4
20260506174929 65 205 1.0 3.0 0.27 0.28 0.28 89 1016.2
20260506174429 65 203 1.0 3.0 0.28 0.28 0.28 88 1016.0
20260506173930 65 232 1.0 3.0 0.28 0.28 0.28 88 1015.9
20260506173433 65 215 1.0 3.0 0.27 0.27 0.27 86 1015.9
20260506173028 66 211 2.0 7.0 0.25 0.25 0.25 83 1016.1
20260506173013 65 110 2.0 6.0 0.26 0.26 0.26 85 1015.8
20260506171919 67 44 2.0 10.0 0.22 0.22 0.22 80 1016.3
20260506171412 68 49 2.0 10.0 0.18 0.18 0.17 77 1017.1
20260506170909 69 200 2.0 10.0 0.14 0.14 0.13 75 1016.9
20260506170410 70 282 2.0 10.0 0.07 0.07 0.06 70 1016.3
20260506165909 71 194 2.0 10.0 0.02 0.02 0.02 66 1016.5
20260506165410 73 200 2.0 7.0 0.02 0.02 0.02 64 1016.2
20260506165216 73 270 2.0 6.0 0.01 0.01 0.01 60 1015.7
20260506164411 74 269 3.0 11.0 0.00 0.00 0.00 55 1015.7
20260506163912 74 355 3.0 11.0 0.00 0.00 0.00 53 1015.5
20260506163409 75 255 2.0 7.0 0.00 0.00 0.00 52 1015.1
20260506162910 75 205 2.0 7.0 0.00 0.00 0.00 51 1015.0
20260506162716 75 51 2.0 7.0 0.00 0.00 0.00 52 1015.0
20260506161910 75 209 1.0 6.0 0.00 0.00 0.00 53 1015.1
20260506161410 75 257 2.0 5.0 0.00 0.00 0.00 56 1015.1
20260506160909 75 121 3.0 7.0 0.00 0.00 0.00 56 1015.1
20260506160410 75 240 2.0 7.0 0.00 0.00 0.00 55 1015.1
20260506155909 75 281 2.0 9.0 0.00 0.00 0.00 57 1015.1
20260506155410 74 44 2.0 9.0 0.00 0.00 0.00 58 1015.0
20260506154911 74 146 2.0 8.0 0.00 0.00 0.00 57 1015.0
20260506154408 74 200 3.0 8.0 0.00 0.00 0.00 59 1014.9
20260506153910 73 276 3.0 8.0 0.00 0.00 0.00 60 1014.9
20260506153410 73 217 2.0 8.0 0.00 0.00 0.00 61 1014.8
20260506152906 72 239 2.0 6.0 0.00 0.00 0.00 64 1014.8
20260506152406 72 71 2.0 8.0 0.00 0.00 0.00 65 1014.6
20260506152210 71 202 2.0 8.0 0.00 0.00 0.00 66 1014.6
20260506151407 71 277 1.0 4.0 0.00 0.00 0.00 68 1014.7
20260506150909 71 207 1.0 3.0 0.00 0.00 0.00 70 1014.8
20260506150408 70 86 2.0 5.0 0.00 0.00 0.00 70 1014.7
20260506145907 69 139 2.0 5.0 0.00 0.00 0.00 71 1014.9
20260506145407 69 219 1.0 4.0 0.00 0.00 0.00 71 1015.0
20260506144908 69 225 1.0 3.0 0.00 0.00 0.00 71 1014.8
20260506144403 68 152 1.0 3.0 0.00 0.00 0.00 72 1015.0
20260506144209 68 108 1.0 3.0 0.00 0.00 0.00 71 1015.1
20260506143404 68 44 1.0 3.0 0.00 0.00 0.00 72 1015.3
20260506142904 68 255 1.0 3.0 0.00 0.00 0.00 72 1015.2
20260506142403 68 182 2.0 4.0 0.00 0.00 0.00 72 1015.1
20260506141905 67 51 2.0 5.0 0.00 0.00 0.00 72 1015.0
20260506141406 67 203 2.0 6.0 0.00 0.00 0.00 72 1014.8
20260506141212 67 214 2.0 6.0 0.00 0.00 0.00 72 1014.9
20260506140714 67 227 1.0 5.0 0.00 0.00 0.00 72 1015.0
20260506135902 67 196 1.0 5.0 0.00 0.00 0.00 72 1014.9
20260506135402 67 212 2.0 4.0 0.00 0.00 0.00 73 1014.7
20260506134902 67 254 2.0 5.0 0.00 0.00 0.00 73 1014.6
20260506134401 67 229 1.0 5.0 0.00 0.00 0.00 74 1014.6
20260506133902 66 182 1.0 3.0 0.00 0.00 0.00 74 1014.7
20260506133402 66 201 1.0 4.0 0.00 0.00 0.00 74 1014.7
20260506132902 65 109 1.0 4.0 0.00 0.00 0.00 75 1014.5
20260506132401 65 31 1.0 4.0 0.00 0.00 0.00 75 1014.5
20260506131901 65 210 1.0 3.0 0.00 0.00 0.00 75 1014.6
20260506131402 65 225 1.0 8.0 0.00 0.00 0.00 76 1014.6
20260506130900 64 349 1.0 8.0 0.00 0.00 0.00 75 1014.7
20260506130711 64 39 2.0 4.0 0.00 0.00 0.00 76 1014.3
20260506125902 64 89 2.0 6.0 0.00 0.00 0.00 76 1013.9
20260506125402 64 173 1.0 6.0 0.00 0.00 0.00 76 1014.4
20260506124901 64 249 1.0 3.0 0.00 0.00 0.00 76 1014.9
20260506124403 64 175 1.0 3.0 0.00 0.00 0.00 76 1014.9
20260506124213 63 190 1.0 3.0 0.00 0.00 0.00 77 1015.2
20260506123705 63 107 1.0 3.0 0.00 0.00 0.00 77 1015.1
20260506122901 63 123 1.0 3.0 0.00 0.00 0.00 77 1015.1
20260506122402 63 209 1.0 2.0 0.00 0.00 0.00 77 1015.2
20260506121901 63 325 0.0 3.0 0.00 0.00 0.00 77 1015.3
20260506121722 63 5 1.0 3.0 0.00 0.00 0.00 76 1015.6
20260506120903 63 44 1.0 2.0 0.00 0.00 0.00 76 1015.8
20260506120358 63 207 1.0 3.0 0.00 0.00 0.00 76 1015.6
20260506115859 63 146 1.0 3.0 0.00 0.00 0.00 76 1015.6
20260506115345 63 205 1.0 3.0 0.00 0.00 0.00 76 1015.4
20260506114844 63 202 1.0 3.0 0.00 0.00 0.00 76 1015.2
20260506114336 62 181 1.0 5.0 0.00 0.00 0.00 76 1015.2
20260506113833 62 89 1.0 5.0 0.00 0.00 0.00 76 1015.1
20260506113330 62 283 1.0 4.0 0.00 0.00 0.00 75 1014.9
20260506112832 62 13 1.0 4.0 0.00 0.00 0.00 75 1014.7
20260506112331 62 195 1.0 4.0 0.00 0.00 0.00 75 1014.8
20260506111830 62 202 2.0 4.0 0.00 0.00 0.00 75 1014.7
20260506111629 62 215 2.0 4.0 0.00 0.00 0.00 75 1014.7
20260506110832 62 194 1.0 3.0 0.00 0.00 0.00 75 1014.6
20260506110332 62 177 1.0 4.0 0.00 0.00 0.00 75 1014.5
20260506105831 62 195 1.0 4.0 0.00 0.00 0.00 75 1014.3
20260506105329 62 46 1.0 4.0 0.00 0.00 0.00 75 1014.0
20260506105140 62 30 1.0 4.0 0.00 0.00 0.00 75 1014.0
20260506104329 62 220 1.0 5.0 0.00 0.00 0.00 75 1014.0
20260506103829 62 165 2.0 6.0 0.00 0.00 0.00 75 1014.0
20260506103329 62 221 1.0 6.0 0.00 0.00 0.00 75 1013.9
20260506102829 62 93 1.0 4.0 0.00 0.00 0.00 75 1013.7
20260506102631 62 159 1.0 4.0 0.00 0.00 0.00 75 1013.7
20260506101824 62 341 1.0 4.0 0.00 0.00 0.00 75 1013.6
20260506101318 62 200 1.0 4.0 0.00 0.00 0.00 75 1013.8
20260506100812 62 83 1.0 4.0 0.00 0.00 0.00 76 1014.0
20260506100311 62 71 1.0 4.0 0.00 0.00 0.00 76 1013.9
20260506095810 62 23 1.0 3.0 0.00 0.00 0.00 76 1013.8
20260506095310 62 246 1.0 4.0 0.00 0.00 0.00 76 1013.8
20260506094808 62 71 1.0 4.0 0.00 0.00 0.00 76 1013.9
20260506094603 62 167 1.0 4.0 0.00 0.00 0.00 76 1014.0
20260506094102 62 61 1.0 4.0 0.00 0.00 0.00 76 1013.9
20260506093614 62 41 1.0 2.0 0.00 0.00 0.00 75 1013.9
20260506092808 62 129 1.0 3.0 0.00 0.00 0.00 75 1014.0
20260506092307 62 86 1.0 4.0 0.00 0.00 0.00 75 1014.3
20260506091803 62 255 1.0 4.0 0.00 0.00 0.00 75 1014.3
20260506091304 62 243 0.0 3.0 0.00 0.00 0.00 75 1014.4
20260506090803 62 109 0.0 2.0 0.00 0.00 0.00 74 1014.5
20260506090301 62 252 1.0 4.0 0.00 0.00 0.00 74 1014.5
20260506085802 62 153 1.0 4.0 0.00 0.00 0.00 74 1014.6
20260506085305 62 51 1.0 6.0 0.00 0.00 0.00 74 1014.6
20260506084801 62 145 1.0 6.0 0.00 0.00 0.00 74 1014.7
20260506084303 63 159 1.0 3.0 0.00 0.00 0.00 74 1014.8
20260506083802 63 55 0.0 3.0 0.00 0.00 0.00 74 1014.8
20260506083259 63 208 1.0 4.0 0.00 0.00 0.00 73 1014.8
20260506082753 63 229 1.0 4.0 0.00 0.00 0.00 73 1014.8
20260506082247 63 198 1.0 4.0 0.00 0.00 0.00 73 1014.9
20260506081741 63 159 1.0 5.0 0.00 0.00 0.00 73 1014.8
20260506081241 63 204 1.0 5.0 0.00 0.00 0.00 73 1014.8
20260506080739 63 175 1.0 6.0 0.00 0.00 0.00 73 1014.8
20260506080532 63 173 1.0 6.0 0.00 0.00 0.00 73 1014.8
20260506073236 64 36 1.0 4.0 0.00 0.00 0.00 71 1015.0
20260506072738 64 198 2.0 4.0 0.00 0.00 0.00 71 1015.0
20260506072528 64 170 2.0 5.0 0.00 0.00 0.00 71 1014.9
20260506071734 64 71 2.0 5.0 0.00 0.00 0.00 71 1015.0
20260506071230 64 213 1.0 5.0 0.00 0.00 0.00 71 1015.0
20260506070732 64 194 1.0 3.0 0.00 0.00 0.00 71 1014.9
20260506070230 64 184 2.0 4.0 0.00 0.00 0.00 71 1014.8
20260506062209 65 126 2.0 6.0 0.00 0.00 0.00 70 1015.1
20260506061707 65 205 1.0 4.0 0.00 0.00 0.00 70 1015.3
20260506061208 65 204 2.0 4.0 0.00 0.00 0.00 69 1015.2
20260506061002 65 157 2.0 4.0 0.00 0.00 0.00 69 1015.2
20260506060502 65 226 1.0 5.0 0.00 0.00 0.00 69 1015.2
20260506051008 66 105 2.0 6.0 0.00 0.00 0.00 66 1015.5
20260506050205 66 149 2.0 6.0 0.00 0.00 0.00 65 1015.4
20260506044702 67 78 2.0 9.0 0.00 0.00 0.00 65 1015.3
20260506044203 67 137 2.0 9.0 0.00 0.00 0.00 64 1015.4
20260506043702 67 239 2.0 7.0 0.00 0.00 0.00 64 1015.4
20260506043201 67 77 2.0 7.0 0.00 0.00 0.00 63 1015.4
20260506042703 67 140 2.0 7.0 0.00 0.00 0.00 63 1015.4
20260506042201 67 250 2.0 7.0 0.00 0.00 0.00 63 1015.4
20260506041702 67 160 2.0 7.0 0.00 0.00 0.00 63 1015.3
20260506041202 68 132 2.0 7.0 0.00 0.00 0.00 62 1015.2
20260506040703 68 145 2.0 8.0 0.00 0.00 0.00 62 1015.1
20260506040202 68 126 3.0 8.0 0.00 0.00 0.00 61 1015.0
20260506035702 68 144 3.0 7.0 0.00 0.00 0.00 61 1015.1
20260506035203 68 142 2.0 5.0 0.00 0.00 0.00 60 1015.0
20260506034701 68 290 2.0 5.0 0.00 0.00 0.00 60 1015.1
20260506034500 68 125 2.0 5.0 0.00 0.00 0.00 59 1015.1
20260506033701 69 158 2.0 5.0 0.00 0.00 0.00 59 1014.9
20260506033201 69 112 2.0 5.0 0.00 0.00 0.00 59 1014.9
20260506032701 69 138 2.0 5.0 0.00 0.00 0.00 58 1014.9
20260506032201 69 169 2.0 4.0 0.00 0.00 0.00 57 1014.9
20260506031701 69 134 2.0 4.0 0.00 0.00 0.00 57 1014.8
20260506031323 69 63 2.0 4.0 0.00 0.00 0.00 56 1014.9
20260506031256 69 128 2.0 4.0 0.00 0.00 0.00 56 1014.8
20260506030201 69 141 2.0 3.0 0.00 0.00 0.00 55 1014.8
20260506025703 69 140 1.0 3.0 0.00 0.00 0.00 54 1014.8
20260506025204 68 145 1.0 3.0 0.00 0.00 0.00 54 1014.9
20260506024705 68 164 1.0 2.0 0.00 0.00 0.00 54 1014.9
20260506024201 68 164 1.0 3.0 0.00 0.00 0.00 54 1014.9
20260506023702 68 165 1.0 3.0 0.00 0.00 0.00 54 1015.1
20260506023201 68 198 1.0 2.0 0.00 0.00 0.00 54 1015.2
20260506022702 68 200 0.0 1.0 0.00 0.00 0.00 53 1015.3
20260506022202 69 200 0.0 1.0 0.00 0.00 0.00 51 1015.3
20260506021701 69 200 0.0 1.0 0.00 0.00 0.00 51 1015.3
20260506021454 69 200 0.0 1.0 0.00 0.00 0.00 50 1015.2
20260506020653 70 200 0.0 2.0 0.00 0.00 0.00 48 1015.2
20260506020153 70 200 0.0 1.0 0.00 0.00 0.00 49 1015.2
20260506020111 71 200 0.0 1.0 0.00 0.00 0.00 47 1015.1
20260506020107 70 200 0.0 1.0 0.00 0.00 0.00 48 1015.2
20260506014945 71 200 0.0 1.0 0.00 0.00 0.00 46 1015.2
20260506014148 71 200 0.0 1.0 0.00 0.00 0.00 46 1015.1
20260506013648 71 200 0.0 1.0 0.00 0.00 0.00 46 1015.1
20260506013148 71 207 0.0 1.0 0.00 0.00 0.00 46 1014.9
20260506012648 72 207 0.0 1.0 0.00 0.00 0.00 45 1014.9
20260506012146 72 207 0.0 2.0 0.00 0.00 0.00 45 1015.0
20260506011646 72 207 0.0 2.0 0.00 0.00 0.00 45 1014.9
20260506011146 72 160 0.0 2.0 0.00 0.00 0.00 44 1014.9
20260506010643 72 160 0.0 2.0 0.00 0.00 0.00 44 1014.8
20260506010145 73 158 0.0 1.0 0.00 0.00 0.00 44 1014.8
20260506005642 73 139 0.0 1.0 0.00 0.00 0.00 44 1014.7
20260506005140 73 139 0.0 1.0 0.00 0.00 0.00 43 1014.7
20260506004943 73 139 0.0 1.0 0.00 0.00 0.00 43 1014.6
20260506004138 73 139 0.0 1.0 0.00 0.00 0.00 42 1014.4
20260506003635 74 139 0.0 1.0 0.00 0.00 0.00 42 1014.6
20260506003136 74 139 0.0 1.0 0.00 0.00 0.00 42 1014.6
20260506002635 74 195 0.0 1.0 0.00 0.00 0.00 42 1014.6
20260506002135 74 195 0.0 1.0 0.00 0.00 0.00 42 1014.4
20260506001637 74 195 0.0 1.0 0.00 0.00 0.00 41 1014.5
20260506001135 74 195 0.0 2.0 0.00 0.00 0.00 41 1014.5
20260506000635 74 149 0.0 2.0 0.00 0.00 0.00 41 1014.3
20260506000135 75 205 1.0 3.0 0.00 0.00 0.00 41 1014.3
20260505235636 75 219 1.0 7.0 0.00 0.00 0.00 40 1014.2
20260505235421 75 51 1.0 7.0 0.00 0.00 0.00 40 1014.3
20260505234634 76 82 1.0 4.0 0.00 0.00 0.00 40 1014.3
20260505234134 76 209 1.0 4.0 0.00 0.00 0.00 40 1014.2
20260505233635 76 207 1.0 4.0 0.00 0.00 0.00 40 1014.0
20260505233542 76 186 1.0 3.0 0.00 0.00 0.00 39 1014.2
20260505233538 76 200 1.0 3.0 0.00 0.00 0.00 39 1014.2
20260505232135 77 211 1.0 3.0 0.00 0.00 0.00 39 1014.2
20260505231635 77 207 1.0 4.0 0.00 0.00 0.00 39 1014.3
20260505231439 77 200 1.0 4.0 0.00 0.00 0.00 38 1014.2
20260505230634 77 128 1.0 4.0 0.00 0.00 0.00 39 1014.2
20260505230134 77 207 1.0 4.0 0.00 0.00 0.00 39 1014.2
20260505225634 77 138 1.0 4.0 0.00 0.00 0.00 40 1014.2
20260505225135 77 91 1.0 3.0 0.00 0.00 0.00 39 1014.0
20260505224925 77 102 1.0 4.0 0.00 0.00 0.00 39 1014.0
20260505224441 78 215 2.0 4.0 0.00 0.00 0.00 37 1014.2
20260505223631 78 194 2.0 12.0 0.00 0.00 0.00 37 1014.0
20260505223133 78 183 3.0 12.0 0.00 0.00 0.00 37 1014.0
20260505222632 78 223 2.0 5.0 0.00 0.00 0.00 37 1014.2
20260505222133 79 162 3.0 6.0 0.00 0.00 0.00 37 1014.3
20260505221632 79 194 2.0 6.0 0.00 0.00 0.00 36 1014.3
20260505221129 79 229 2.0 7.0 0.00 0.00 0.00 37 1014.4
20260505220715 80 197 1.0 4.0 0.00 0.00 0.00 36 1014.6
20260505220658 80 167 2.0 7.0 0.00 0.00 0.00 36 1014.3
20260505215615 80 83 2.0 7.0 0.00 0.00 0.00 36 1014.5
20260505215113 80 119 2.0 7.0 0.00 0.00 0.00 36 1014.4
20260505214614 80 226 2.0 7.0 0.00 0.00 0.00 36 1014.5
20260505214113 80 124 2.0 7.0 0.00 0.00 0.00 36 1014.5
20260505213613 80 160 2.0 8.0 0.00 0.00 0.00 36 1014.7
20260505213112 80 346 3.0 8.0 0.00 0.00 0.00 36 1014.6
20260505212611 80 194 3.0 8.0 0.00 0.00 0.00 36 1014.6
20260505212112 80 200 3.0 8.0 0.00 0.00 0.00 35 1014.5
20260505211611 80 196 2.0 6.0 0.00 0.00 0.00 35 1014.6